sat.trackr.live / text

‹ back to catalog

ONEWEB-0163

NORAD 48061 · 2021-025V

PAYLOAD ACTIVE UNKNOWN

§ Identity

Operator
Country
UK
Launch date
2021-03-25
Launch site
VOSTO
Launch vehicle
Mass (kg)
RCS (m²)

Purposes: comms

External: N2YO · Heavens-Above · Gunter

§ Orbital elements

Epoch: 2026-05-25T04:39:02.503008Z

Period
109.63 min
Inclination
87.8944°
Eccentricity
0.0001604
Mean motion
13.13468833 rev/d
Perigee alt
1,208.6 km
Apogee alt
1,211.0 km
Semi-major
7,587.9 km
B*
4.9122e-4
RAAN
324.8005°
Arg perigee
99.7478°
Mean anomaly
260.3832°
Rev number
25,066

§ Raw data

ONEWEB-01631 48061U 21025V   26145.19377897  .00000192  00000+0  49122-3 0  99902 48061  87.8944 324.8005 0001604  99.7478 260.3832 13.13468833250661

JSON: /api/v1/satellites/48061 · /tle

For live sub-satellite position, see the globe view (requires WebGL).

§ Visibility from observer

Set your observer location to see the next 7 days of passes ≥ 10°. The values pass through the URL so the page stays shareable.

No JS? Fill the form by hand. The geolocation button needs JavaScript.